TimePDT,TemperatureF,Dew PointF,Humidity,Sea Level PressureIn,VisibilityMPH,Wind Direction,Wind SpeedMPH,Gust SpeedMPH,PrecipitationIn,Events,Conditions,WindDirDegrees,DateUTC
12:58 AM,64.0,56.1,75,29.98,10.0,NNW,1.2,-,N/A,,Clear,340,2013-08-07 07:58:00
1:58 AM,62.2,55.8,79,29.99,10.0,West,2.3,-,N/A,,Clear,270,2013-08-07 08:58:00
2:58 AM,58.8,53.8,83,29.99,10.0,South,3.5,-,N/A,,Clear,180,2013-08-07 09:58:00
3:58 AM,54.1,51.6,91,30.00,10.0,SSW,3.5,-,N/A,,Clear,200,2013-08-07 10:58:00
4:58 AM,55.8,53.2,91,29.99,10.0,South,2.3,-,N/A,,Clear,190,2013-08-07 11:58:00
5:58 AM,53.6,51.8,94,30.00,0.8,South,3.5,-,N/A,,Clear,190,2013-08-07 12:58:00
6:03 AM,53.6,51.8,94,29.99,1.0,South,4.6,-,N/A,,Clear,190,2013-08-07 13:03:00
6:08 AM,53.6,51.8,94,29.99,6.0,South,4.6,-,N/A,,Clear,190,2013-08-07 13:08:00
6:17 AM,51.8,51.8,100,30.00,10.0,SSW,3.5,-,N/A,,Partly Cloudy,200,2013-08-07 13:17:00
6:58 AM,55.8,54.5,96,30.01,10.0,SSW,3.5,-,N/A,,Clear,210,2013-08-07 13:58:00
6:59 AM,55.4,53.6,94,30.00,10.0,SSW,3.5,-,N/A,,Partly Cloudy,210,2013-08-07 13:59:00
7:09 AM,55.4,55.4,100,30.01,10.0,WSW,4.6,-,N/A,,Mostly Cloudy,240,2013-08-07 14:09:00
7:58 AM,55.6,54.9,97,30.04,10.0,SW,3.5,-,N/A,,Overcast,220,2013-08-07 14:58:00
8:13 AM,57.2,55.4,94,30.03,10.0,Variable,2.3,-,N/A,,Scattered Clouds,0,2013-08-07 15:13:00
8:58 AM,60.3,54.3,81,30.04,10.0,Variable,2.3,-,N/A,,Clear,0,2013-08-07 15:58:00
9:58 AM,64.9,54.9,70,30.05,10.0,Variable,1.2,-,N/A,,Clear,0,2013-08-07 16:58:00
10:58 AM,69.6,55.9,62,30.04,10.0,WNW,8.1,-,N/A,,Clear,300,2013-08-07 17:58:00
11:58 AM,73.9,56.3,54,30.03,10.0,NW,6.9,-,N/A,,Clear,320,2013-08-07 18:58:00
12:58 PM,76.8,56.7,50,30.03,10.0,Variable,6.9,-,N/A,,Clear,0,2013-08-07 19:58:00
1:58 PM,79.9,54.9,42,30.01,10.0,Variable,5.8,-,N/A,,Clear,0,2013-08-07 20:58:00
2:35 PM,82.4,53.6,37,29.99,10.0,NNW,6.9,-,N/A,,Clear,340,2013-08-07 21:35:00
2:43 PM,82.4,53.6,37,29.99,10.0,Variable,2.3,-,N/A,,Clear,0,2013-08-07 21:43:00
2:44 PM,82.4,53.6,37,29.99,10.0,Variable,2.3,-,N/A,,Clear,0,2013-08-07 21:44:00
2:58 PM,83.5,53.6,36,30.00,10.0,NNE,5.8,-,0.00,,Clear,20,2013-08-07 21:58:00
3:58 PM,85.3,53.6,34,29.98,10.0,Variable,2.3,-,N/A,,Clear,0,2013-08-07 22:58:00
4:58 PM,85.8,49.8,29,29.97,10.0,Variable,5.8,-,N/A,,Clear,0,2013-08-07 23:58:00
5:58 PM,85.5,53.6,33,29.97,10.0,NNW,9.2,-,N/A,,Clear,340,2013-08-08 00:58:00
6:58 PM,85.1,50.2,30,29.97,10.0,NNE,4.6,-,N/A,,Clear,20,2013-08-08 01:58:00
7:58 PM,82.0,51.3,34,29.97,10.0,NW,6.9,-,N/A,,Clear,320,2013-08-08 02:58:00
8:58 PM,73.8,59.2,60,29.99,10.0,WNW,8.1,-,N/A,,Clear,300,2013-08-08 03:58:00
9:58 PM,68.5,56.1,64,30.02,10.0,West,6.9,-,N/A,,Clear,280,2013-08-08 04:58:00
10:58 PM,64.2,55.0,72,30.03,10.0,NW,4.6,-,N/A,,Clear,310,2013-08-08 05:58:00
11:58 PM,61.9,55.0,78,30.04,10.0,WNW,4.6,-,N/A,,Clear,290,2013-08-08 06:58:00